Storm Lake, IA

11:30 AM CST on February 27, 2017 (GMT -0600)
Storm Lake Municipal

Weather History for KSLB - October, 2011

Change the Weather History Date:

Monday, October 31, 2011

  Actual Average Record
Temperature  
Mean Temperature 42 °F -  
Max Temperature 59 °F 51 °F 69 °F (2000)
Min Temperature 25 °F 34 °F 17 °F (1996)
Degree Days  
Heating Degree Days 23    
Moisture  
Dew Point 21 °F    
Average Humidity 53    
Maximum Humidity 83    
Minimum Humidity 17    
Precipitation  
Precipitation 0.00 in - - ()
Sea Level Pressure  
Sea Level Pressure 30.02 in    
Wind  
Wind Speed 9 mph (SW)    
Max Wind Speed 14 mph    
Max Gust Speed 18 mph    
Visibility 10 miles    
Events      
Averages and records for this station are not official NWS values.
T = Trace of Precipitation, MM = Missing Value Source: NWS Daily Summary

Daily Weather History Graph

Daily Weather History Graph

Search for Another Location

Airport or City:

Trip Planner

Search our weather history database for the weather conditions in past years. The results will help you decide how hot, cold, wet, or windy it might be!

Date:

Astronomy

Oct. 31, 2011 Rise Set
Actual Time 7:53 AM CDT 6:15 PM CDT
Civil Twilight 7:23 AM CDT 6:44 PM CDT
Nautical Twilight 6:50 AM CDT 7:17 PM CDT
Astronomical Twilight 6:17 AM CDT 7:50 PM CDT
Moon 1:03 PM CDT (10/31) 10:50 PM CDT (10/31)
Length of Visible Light 11h 20m
Length of Day
10h 22m
Waxing Crescent, 30% of the Moon is Illuminated
Oct 31
Waxing Crescent
Nov 2
First Quarter
Nov 10
Full
Nov 18
Last Quarter
Nov 25
New

Hourly Weather History & Observations

Time (CDT) Temp. Windchill Dew Point Humidity Pressure Visibility Wind Dir Wind Speed Gust Speed Precip Events Conditions
12:15 AM 30.7 °F 22.6 °F 21.7 °F 69% 30.03 in 10.0 mi WNW 9.2 mph - N/A   Clear
12:35 AM 32.7 °F 25.0 °F 23.2 °F 68% 30.02 in 10.0 mi WNW 9.2 mph - N/A   Clear
12:55 AM 33.8 °F 25.8 °F 23.5 °F 66% 30.04 in 10.0 mi WNW 10.4 mph - N/A   Clear
1:15 AM 32.5 °F 24.8 °F 23.0 °F 68% 30.04 in 10.0 mi WNW 9.2 mph - N/A   Clear
1:35 AM 32.5 °F 25.5 °F 23.5 °F 69% 30.04 in 10.0 mi WNW 8.1 mph - N/A   Clear
1:55 AM 32.5 °F 25.5 °F 23.7 °F 70% 30.04 in 10.0 mi WNW 8.1 mph - N/A   Clear
2:15 AM 29.8 °F 21.5 °F 21.7 °F 72% 30.04 in 10.0 mi West 9.2 mph - N/A   Clear
2:55 AM 28.2 °F 20.2 °F 21.6 °F 76% 30.04 in 10.0 mi West 8.1 mph - N/A   Clear
3:15 AM 27.3 °F 19.1 °F 21.0 °F 77% 30.04 in 10.0 mi West 8.1 mph - N/A   Clear
3:35 AM 27.1 °F 18.2 °F 21.0 °F 78% 30.05 in 10.0 mi West 9.2 mph - N/A   Clear
3:55 AM 27.1 °F 17.5 °F 21.2 °F 78% 30.05 in 10.0 mi West 10.4 mph - N/A   Clear
4:15 AM 27.1 °F 17.5 °F 21.4 °F 79% 30.05 in 10.0 mi West 10.4 mph - N/A   Clear
4:35 AM 26.2 °F 17.1 °F 20.7 °F 79% 30.05 in 10.0 mi West 9.2 mph - N/A   Clear
4:55 AM 25.9 °F 16.0 °F 20.7 °F 81% 30.05 in 10.0 mi West 10.4 mph - N/A   Clear
5:15 AM 26.1 °F 16.2 °F 20.7 °F 80% 30.05 in 10.0 mi West 10.4 mph - N/A   Clear
5:35 AM 26.2 °F 17.1 °F 20.8 °F 80% 30.06 in 10.0 mi West 9.2 mph - N/A   Clear
5:55 AM 26.6 °F 16.8 °F 21.2 °F 80% 30.06 in 10.0 mi West 10.4 mph - N/A   Clear
6:15 AM 26.4 °F 18.9 °F 21.0 °F 80% 30.05 in 10.0 mi West 6.9 mph - N/A   Clear
6:35 AM 26.2 °F 17.8 °F 21.0 °F 81% 30.05 in 10.0 mi West 8.1 mph - N/A   Clear
6:55 AM 26.8 °F 19.3 °F 21.6 °F 81% 30.05 in 10.0 mi West 6.9 mph - N/A   Clear
7:15 AM 26.1 °F 19.4 °F 21.0 °F 81% 30.04 in 10.0 mi WSW 5.8 mph - N/A   Clear
7:35 AM 26.1 °F 18.4 °F 21.2 °F 82% 30.05 in 10.0 mi WSW 6.9 mph - N/A   Clear
7:55 AM 25.7 °F 18.0 °F 21.2 °F 83% 30.05 in 10.0 mi WSW 6.9 mph - N/A   Clear
8:15 AM 26.6 °F 20.0 °F 21.6 °F 81% 30.06 in 10.0 mi SW 5.8 mph - N/A   Clear
8:35 AM 26.6 °F 20.0 °F 21.6 °F 81% 30.06 in 10.0 mi SW 5.8 mph - N/A   Clear
8:55 AM 28.2 °F 23.1 °F 23.0 °F 81% 30.06 in 10.0 mi SW 4.6 mph - N/A   Clear
9:15 AM 30.6 °F 24.7 °F 24.3 °F 77% 30.06 in 10.0 mi SW 5.8 mph - N/A   Clear
9:35 AM 32.4 °F 26.9 °F 25.2 °F 75% 30.06 in 10.0 mi SW 5.8 mph - N/A   Clear
9:55 AM 34.2 °F 29.0 °F 26.1 °F 72% 30.06 in 10.0 mi SW 5.8 mph - N/A   Clear
10:15 AM 37.2 °F 32.6 °F 27.1 °F 67% 30.06 in 10.0 mi SW 5.8 mph - N/A   Clear
10:35 AM 40.5 °F 36.5 °F 27.1 °F 59% 30.05 in 10.0 mi SSW 5.8 mph - N/A   Clear
10:55 AM 43.3 °F 40.7 °F 26.8 °F 52% 30.04 in 10.0 mi SSW 4.6 mph - N/A   Clear
11:15 AM 46.2 °F 43.3 °F 26.2 °F 46% 30.04 in 10.0 mi South 5.8 mph - N/A   Clear
11:35 AM 48.0 °F - 25.5 °F 41% 30.05 in 10.0 mi SSW 10.4 mph - N/A   Clear
11:55 AM 49.5 °F - 24.4 °F 38% 30.04 in 10.0 mi SW 9.2 mph - N/A   Clear
12:15 PM 50.5 °F - 23.5 °F 35% 30.04 in 10.0 mi SSW 6.9 mph - N/A   Clear
12:35 PM 52.0 °F - 22.3 °F 31% 30.02 in 10.0 mi SSW 8.1 mph - N/A   Clear
12:55 PM 53.1 °F - 20.3 °F 28% 30.01 in 10.0 mi SSW 9.2 mph - N/A   Clear
1:15 PM 54.3 °F - 19.2 °F 25% 30.01 in 10.0 mi SSW 10.4 mph - N/A   Clear
1:35 PM 55.4 °F - 18.5 °F 24% 29.99 in 10.0 mi SSW 10.4 mph 16.1 mph N/A   Clear
1:55 PM 56.3 °F - 17.8 °F 22% 29.98 in 10.0 mi South 8.1 mph - N/A   Clear
2:15 PM 57.0 °F - 16.3 °F 20% 29.98 in 10.0 mi South 9.2 mph - N/A   Clear
2:35 PM 57.6 °F - 15.8 °F 19% 29.97 in 10.0 mi South 13.8 mph - N/A   Clear
2:55 PM 58.3 °F - 15.1 °F 18% 29.96 in 10.0 mi SSW 12.7 mph 16.1 mph N/A   Clear
3:15 PM 58.8 °F - 15.4 °F 18% 29.96 in 10.0 mi South 12.7 mph 18.4 mph N/A   Clear
3:35 PM 59.4 °F - 15.3 °F 18% 29.95 in 10.0 mi South 12.7 mph 18.4 mph N/A   Clear
3:55 PM 59.5 °F - 14.4 °F 17% 29.95 in 10.0 mi South 13.8 mph - N/A   Clear
4:15 PM 59.7 °F - 14.2 °F 17% 29.94 in 10.0 mi South 13.8 mph - N/A   Clear
4:35 PM 59.7 °F - 14.7 °F 17% 29.94 in 10.0 mi South 12.7 mph - N/A   Clear
4:55 PM 59.4 °F - 14.7 °F 17% 29.94 in 10.0 mi South 13.8 mph - N/A   Clear
5:15 PM 59.0 °F - 15.1 °F 18% 29.94 in 10.0 mi South 11.5 mph - N/A   Clear
5:35 PM 57.9 °F - 15.8 °F 19% 29.94 in 10.0 mi South 10.4 mph - N/A   Clear
5:55 PM 55.9 °F - 16.7 °F 21% 29.93 in 10.0 mi SSE 10.4 mph - N/A   Clear
6:15 PM 53.2 °F - 17.2 °F 24% 29.93 in 10.0 mi SSE 10.4 mph - N/A   Clear
6:35 PM 50.5 °F - 17.4 °F 27% 29.93 in 10.0 mi SSE 11.5 mph - N/A   Clear
6:55 PM 48.9 °F - 18.0 °F 29% 29.94 in 10.0 mi SSE 10.4 mph - N/A   Clear
7:15 PM 48.7 °F - 18.7 °F 30% 29.94 in 10.0 mi SSE 11.5 mph - N/A   Clear
7:35 PM 48.9 °F - 18.7 °F 30% 29.94 in 10.0 mi SSE 11.5 mph - N/A   Clear
7:55 PM 47.8 °F - 19.2 °F 32% 29.95 in 10.0 mi SSE 9.2 mph - N/A   Clear
8:15 PM 46.4 °F 41.9 °F 19.8 °F 35% 29.94 in 10.0 mi SSE 9.2 mph - N/A   Clear
8:35 PM 46.0 °F 40.6 °F 19.6 °F 35% 29.94 in 10.0 mi SSE 11.5 mph - N/A   Clear
9:15 PM 47.7 °F - 19.4 °F 33% 29.94 in 10.0 mi SSE 12.7 mph - N/A   Clear
9:35 PM 47.7 °F - 19.8 °F 33% 29.94 in 10.0 mi SSE 16.1 mph - N/A   Clear
9:55 PM 47.1 °F - 20.1 °F 34% 29.93 in 10.0 mi SSE 13.8 mph - N/A   Clear
10:15 PM 46.8 °F - 20.5 °F 35% 29.93 in 10.0 mi SSE 12.7 mph - N/A   Clear
10:35 PM 46.6 °F - 21.0 °F 36% 29.93 in 10.0 mi SSE 13.8 mph 19.6 mph N/A   Clear
10:55 PM 46.9 °F - 21.2 °F 36% 29.92 in 10.0 mi SSE 15.0 mph - N/A   Clear
11:15 PM 47.3 °F - 21.6 °F 36% 29.91 in 10.0 mi SSE 15.0 mph 19.6 mph N/A   Clear
11:35 PM 46.8 °F - 21.9 °F 37% 29.91 in 10.0 mi SSE 13.8 mph - N/A   Clear
11:55 PM 46.2 °F 40.8 °F 22.3 °F 39% 29.91 in 10.0 mi SSE 11.5 mph - N/A   Clear